Location: *
(52.2090°N, 4.1550°W)
Time: 04:35:51
(UTC+00:00)

Cosmos 2208 Rocket - Pass Details

Date: 19 July 2019
Orbit: 754 x 806 km, 74.0° (Epoch: 20 August)

Event Time Altitude Azimuth Distance (km) Brightness Sun altitude
Rises 23:22:18 0° 333° (NNW) 3,334 9.0 -15.8°
Reaches altitude 10° 23:24:43 10° 332° (NNW) 2,397 7.8 -15.9°
Maximum altitude 23:30:10 72° 249° (WSW) 845 4.1 -16.1°
Enters shadow 23:33:12 27° 170° (S) 1,506 4.9 -16.2°
